{"data":{"norad_id":67983,"intl_designator":"2026-038Y","name":"STARLINK-36867","alt_names":[],"object_type":"PAYLOAD","status":"ACTIVE","operator":null,"country":"US","launch_date":"2026-02-25","launch_site_code":"AFWTR","launch_vehicle":null,"mission":null,"orbit_class":"UNKNOWN","rcs_meters":null,"size_class":null,"mass_kg":null,"dimensions":null,"purposes":["comms"],"wikipedia_slug":null,"has_3d_model":false,"image_url":null,"decayed_at":null,"tle_current":{"epoch":"2026-09-17T23:42:48.878208Z","epoch_age_seconds":276697,"freshness":"STALE","line1":"1 67983U 26038Y   26260.98806572  .00019327  00000+0  59942-3 0  9996","line2":"2 67983  97.2851 269.4405 0001853 278.2622  81.8411 15.33445532 32714","mean_motion":15.33445532,"eccentricity":0.0001853,"inclination_deg":97.2851,"raan_deg":269.4405,"arg_perigee_deg":278.2622,"mean_anomaly_deg":81.8411,"bstar":0.00059942,"rev_number":3271,"period_min":93.906172077849,"perigee_km":464.27345797785,"apogee_km":466.80972526391,"semimajor_km":6843.6785916209,"source":"CELESTRAK","updated_at":"2026-09-20T09:00:43.733762Z"}}}